Time,TemperatureF,DewpointF,PressureIn,WindDirection,WindDirectionDegrees,WindSpeedMPH,WindSpeedGustMPH,Humidity,HourlyPrecipIn,Conditions,Clouds,dailyrainin,SoftwareType,DateUTC
2013-03-12 00:00:00,60.3,55.1,29.91,North,0,0.0,0.0,83,0.00,CLR,FEW,0.00,WeatherDisplay:10.37,2013-03-12 04:00:00,
2013-03-12 00:05:00,60.1,54.6,29.91,North,0,0.0,0.0,82,0.00,CLR,FEW,0.00,WeatherDisplay:10.37,2013-03-12 04:05:00,
2013-03-12 00:06:00,60.3,54.7,29.91,North,0,0.0,0.0,82,0.00,CLR,FEW,0.00,WeatherDisplay:10.37,2013-03-12 04:06:00,
2013-03-12 00:11:00,60.1,54.6,29.91,North,0,0.0,0.0,82,0.00,CLR,FEW,0.00,WeatherDisplay:10.37,2013-03-12 04:11:00,
2013-03-12 00:16:00,59.9,53.7,29.91,North,0,0.0,0.0,80,0.00,CLR,FEW,0.00,WeatherDisplay:10.37,2013-03-12 04:16:00,
2013-03-12 00:20:00,59.9,54.1,29.91,North,0,0.0,0.0,81,0.00,CLR,FEW,0.00,WeatherDisplay:10.37,2013-03-12 04:20:00,
2013-03-12 00:25:00,59.9,54.4,29.91,North,0,0.0,0.0,82,0.00,CLR,FEW,0.00,WeatherDisplay:10.37,2013-03-12 04:25:00,
2013-03-12 00:30:00,59.7,54.2,29.91,North,0,0.0,0.0,82,0.00,CLR,FEW,0.00,WeatherDisplay:10.37,2013-03-12 04:30:00,
2013-03-12 00:35:00,59.9,54.7,29.91,North,0,0.0,0.0,83,0.00,CLR,FEW,0.00,WeatherDisplay:10.37,2013-03-12 04:35:00,
2013-03-12 00:41:00,59.5,54.7,29.91,North,0,0.0,0.0,84,0.00,CLR,FEW,0.00,WeatherDisplay:10.37,2013-03-12 04:41:00,
2013-03-12 00:46:00,59.5,55.3,29.91,North,0,0.0,0.0,86,0.00,CLR,FEW,0.00,WeatherDisplay:10.37,2013-03-12 04:46:00,
2013-03-12 00:52:00,59.4,55.5,29.91,North,0,0.0,0.0,87,0.00,CLR,FEW,0.00,WeatherDisplay:10.37,2013-03-12 04:52:00,
2013-03-12 00:57:00,59.2,55.3,29.91,North,0,0.0,0.0,87,0.00,CLR,FEW,0.00,WeatherDisplay:10.37,2013-03-12 04:57:00,
2013-03-12 01:02:00,58.8,55.3,29.91,North,0,0.0,0.0,88,0.00,CLR,FEW,0.00,WeatherDisplay:10.37,2013-03-12 05:02:00,
2013-03-12 01:07:00,58.8,55.3,29.91,North,0,0.0,0.0,88,0.00,CLR,FEW,0.00,WeatherDisplay:10.37,2013-03-12 05:07:00,
2013-03-12 01:12:00,59.2,56.2,29.91,North,0,0.0,0.0,90,0.00,CLR,FEW,0.00,WeatherDisplay:10.37,2013-03-12 05:12:00,
2013-03-12 01:17:00,59.2,56.9,29.91,North,0,0.0,0.0,92,0.00,CLR,FEW,0.00,WeatherDisplay:10.37,2013-03-12 05:17:00,
2013-03-12 01:22:00,59.0,56.7,29.91,North,0,0.0,0.0,92,0.00,CLR,FEW,0.00,WeatherDisplay:10.37,2013-03-12 05:22:00,
2013-03-12 01:28:00,58.6,56.3,29.91,North,0,0.0,0.0,92,0.00,CLR,FEW,0.00,WeatherDisplay:10.37,2013-03-12 05:28:00,
2013-03-12 01:33:00,58.6,56.3,29.91,North,0,0.0,0.0,92,0.00,CLR,FEW,0.00,WeatherDisplay:10.37,2013-03-12 05:33:00,
2013-03-12 01:38:00,58.5,56.1,29.91,North,0,0.0,0.0,92,0.00,CLR,FEW,0.00,WeatherDisplay:10.37,2013-03-12 05:38:00,
2013-03-12 01:43:00,58.5,56.1,29.88,North,0,0.0,0.0,92,0.00,CLR,FEW,0.00,WeatherDisplay:10.37,2013-03-12 05:43:00,
2013-03-12 01:48:00,58.3,56.0,29.88,North,0,0.0,0.0,92,0.00,CLR,FEW,0.00,WeatherDisplay:10.37,2013-03-12 05:48:00,
2013-03-12 01:53:00,58.1,55.8,29.88,North,0,0.0,0.0,92,0.00,CLR,FEW,0.00,WeatherDisplay:10.37,2013-03-12 05:53:00,
2013-03-12 01:58:00,58.1,55.8,29.88,North,0,0.0,0.0,92,0.00,CLR,FEW,0.00,WeatherDisplay:10.37,2013-03-12 05:58:00,
2013-03-12 02:03:00,58.1,55.8,29.88,North,0,0.0,0.0,92,0.00,CLR,FEW,0.00,WeatherDisplay:10.37,2013-03-12 06:03:00,
2013-03-12 02:08:00,58.3,56.3,29.88,North,0,0.0,0.0,93,0.00,CLR,FEW,0.00,WeatherDisplay:10.37,2013-03-12 06:08:00,
2013-03-12 02:13:00,58.5,56.4,29.88,North,0,0.0,0.0,93,0.00,CLR,FEW,0.00,WeatherDisplay:10.37,2013-03-12 06:13:00,
2013-03-12 02:18:00,58.5,56.4,29.88,North,0,0.0,0.0,93,0.00,CLR,FEW,0.00,WeatherDisplay:10.37,2013-03-12 06:18:00,
2013-03-12 02:23:00,58.5,56.4,29.88,North,0,0.0,0.0,93,0.00,CLR,FEW,0.00,WeatherDisplay:10.37,2013-03-12 06:23:00,
2013-03-12 02:28:00,58.3,56.3,29.88,North,0,0.0,0.0,93,0.00,CLR,FEW,0.00,WeatherDisplay:10.37,2013-03-12 06:28:00,
2013-03-12 02:33:00,58.5,56.4,29.88,North,0,0.0,0.0,93,0.00,CLR,FEW,0.00,WeatherDisplay:10.37,2013-03-12 06:33:00,
2013-03-12 02:38:00,58.6,56.9,29.88,North,0,0.0,0.0,94,0.00,CLR,FEW,0.00,WeatherDisplay:10.37,2013-03-12 06:38:00,
2013-03-12 02:43:00,59.0,57.3,29.88,North,0,0.0,0.0,94,0.00,CLR,FEW,0.00,WeatherDisplay:10.37,2013-03-12 06:43:00,
2013-03-12 02:48:00,59.2,57.5,29.88,North,0,0.0,0.0,94,0.00,CLR,FEW,0.00,WeatherDisplay:10.37,2013-03-12 06:48:00,
2013-03-12 02:53:00,59.2,57.5,29.88,North,0,0.0,0.0,94,0.00,CLR,FEW,0.00,WeatherDisplay:10.37,2013-03-12 06:53:00,
2013-03-12 02:58:00,59.2,57.5,29.88,North,0,0.0,0.0,94,0.00,CLR,FEW,0.00,WeatherDisplay:10.37,2013-03-12 06:58:00,
2013-03-12 03:03:00,59.2,57.7,29.88,North,0,0.0,0.0,95,0.00,CLR,FEW,0.00,WeatherDisplay:10.37,2013-03-12 07:03:00,
2013-03-12 03:08:00,59.4,57.9,29.88,North,0,0.0,0.0,95,0.00,CLR,FEW,0.00,WeatherDisplay:10.37,2013-03-12 07:08:00,
2013-03-12 03:13:00,59.4,57.9,29.88,North,0,0.0,0.0,95,0.00,CLR,FEW,0.00,WeatherDisplay:10.37,2013-03-12 07:13:00,
2013-03-12 03:18:00,59.4,57.6,29.88,North,0,0.0,0.0,94,0.00,CLR,FEW,0.00,WeatherDisplay:10.37,2013-03-12 07:18:00,
2013-03-12 03:23:00,59.2,57.5,29.88,North,0,0.0,0.0,94,0.00,CLR,FEW,0.00,WeatherDisplay:10.37,2013-03-12 07:23:00,
2013-03-12 03:28:00,59.2,57.5,29.85,North,0,0.0,0.0,94,0.00,CLR,FEW,0.00,WeatherDisplay:10.37,2013-03-12 07:28:00,
2013-03-12 03:33:00,59.2,57.5,29.85,North,0,0.0,0.0,94,0.00,CLR,FEW,0.00,WeatherDisplay:10.37,2013-03-12 07:33:00,
2013-03-12 03:38:00,59.2,57.5,29.85,North,0,0.0,0.0,94,0.00,CLR,FEW,0.00,WeatherDisplay:10.37,2013-03-12 07:38:00,
2013-03-12 03:43:00,59.0,57.3,29.85,North,0,0.0,0.0,94,0.00,CLR,FEW,0.00,WeatherDisplay:10.37,2013-03-12 07:43:00,
2013-03-12 03:48:00,58.8,57.1,29.85,North,0,0.0,0.0,94,0.00,CLR,FEW,0.00,WeatherDisplay:10.37,2013-03-12 07:48:00,
2013-03-12 03:53:00,59.0,57.0,29.85,North,0,0.0,0.0,93,0.00,CLR,FEW,0.00,WeatherDisplay:10.37,2013-03-12 07:53:00,
2013-03-12 03:58:00,59.2,57.2,29.85,North,0,0.0,0.0,93,0.00,CLR,FEW,0.00,WeatherDisplay:10.37,2013-03-12 07:58:00,
2013-03-12 04:03:00,59.4,57.6,29.85,North,0,0.0,0.0,94,0.00,CLR,FEW,0.00,WeatherDisplay:10.37,2013-03-12 08:03:00,
2013-03-12 04:08:00,59.5,57.8,29.85,North,0,0.0,0.0,94,0.00,CLR,FEW,0.00,WeatherDisplay:10.37,2013-03-12 08:08:00,
2013-03-12 04:13:00,59.5,57.8,29.83,North,0,0.0,0.0,94,0.00,CLR,FEW,0.00,WeatherDisplay:10.37,2013-03-12 08:13:00,
2013-03-12 04:18:00,59.5,57.8,29.83,North,0,0.0,0.0,94,0.00,CLR,FEW,0.00,WeatherDisplay:10.37,2013-03-12 08:18:00,
2013-03-12 04:23:00,59.4,57.6,29.83,North,0,0.0,0.0,94,0.00,CLR,FEW,0.00,WeatherDisplay:10.37,2013-03-12 08:23:00,
2013-03-12 04:28:00,59.4,57.6,29.83,North,0,0.0,0.0,94,0.00,CLR,FEW,0.00,WeatherDisplay:10.37,2013-03-12 08:28:00,
2013-03-12 04:33:00,59.5,57.8,29.83,North,0,0.0,0.0,94,0.00,CLR,FEW,0.00,WeatherDisplay:10.37,2013-03-12 08:33:00,
2013-03-12 04:38:00,59.5,57.8,29.83,North,0,0.0,0.0,94,0.00,CLR,FEW,0.00,WeatherDisplay:10.37,2013-03-12 08:38:00,
2013-03-12 04:43:00,59.4,57.6,29.85,North,0,0.0,0.0,94,0.00,CLR,FEW,0.00,WeatherDisplay:10.37,2013-03-12 08:43:00,
2013-03-12 04:48:00,59.5,57.8,29.85,North,0,0.0,0.0,94,0.00,CLR,FEW,0.00,WeatherDisplay:10.37,2013-03-12 08:48:00,
2013-03-12 04:53:00,59.7,58.0,29.85,North,0,0.0,0.0,94,0.00,CLR,FEW,0.00,WeatherDisplay:10.37,2013-03-12 08:53:00,
2013-03-12 04:59:00,59.7,58.0,29.85,North,0,0.0,0.0,94,0.00,CLR,FEW,0.00,WeatherDisplay:10.37,2013-03-12 08:59:00,
2013-03-12 05:04:00,59.9,58.2,29.85,North,0,0.0,0.0,94,0.00,CLR,FEW,0.00,WeatherDisplay:10.37,2013-03-12 09:04:00,
2013-03-12 05:09:00,60.1,58.6,29.85,North,0,0.0,0.0,95,0.00,CLR,FEW,0.00,WeatherDisplay:10.37,2013-03-12 09:09:00,
2013-03-12 05:14:00,60.3,58.8,29.85,North,0,0.0,0.0,95,0.00,CLR,FEW,0.00,WeatherDisplay:10.37,2013-03-12 09:14:00,
2013-03-12 05:19:00,60.4,59.0,29.85,North,0,0.0,0.0,95,0.00,CLR,FEW,0.00,WeatherDisplay:10.37,2013-03-12 09:19:00,
2013-03-12 05:24:00,60.4,59.0,29.85,North,0,0.0,0.0,95,0.00,CLR,FEW,0.00,WeatherDisplay:10.37,2013-03-12 09:24:00,
2013-03-12 05:29:00,60.4,59.0,29.85,North,0,0.0,0.0,95,0.00,CLR,FEW,0.00,WeatherDisplay:10.37,2013-03-12 09:29:00,
2013-03-12 05:34:00,60.4,59.0,29.85,North,0,0.0,0.0,95,0.00,CLR,FEW,0.00,WeatherDisplay:10.37,2013-03-12 09:34:00,
2013-03-12 05:40:00,60.4,59.0,29.85,North,0,0.0,0.0,95,0.00,CLR,FEW,0.00,WeatherDisplay:10.37,2013-03-12 09:40:00,
2013-03-12 05:45:00,60.6,59.2,29.85,North,0,0.0,0.0,95,0.00,CLR,FEW,0.00,WeatherDisplay:10.37,2013-03-12 09:45:00,
2013-03-12 05:50:00,60.6,59.2,29.83,North,0,0.0,0.0,95,0.00,CLR,FEW,0.00,WeatherDisplay:10.37,2013-03-12 09:50:00,
2013-03-12 05:55:00,60.6,59.2,29.83,North,0,0.0,0.0,95,0.00,CLR,FEW,0.00,WeatherDisplay:10.37,2013-03-12 09:55:00,
2013-03-12 06:00:00,60.6,59.2,29.85,North,0,0.0,0.0,95,0.00,CLR,FEW,0.00,WeatherDisplay:10.37,2013-03-12 10:00:00,
2013-03-12 06:05:00,60.8,59.1,29.85,North,0,0.0,0.0,94,0.00,CLR,FEW,0.00,WeatherDisplay:10.37,2013-03-12 10:05:00,
2013-03-12 06:10:00,60.6,59.2,29.85,North,0,0.0,0.0,95,0.04,RA,FEW,0.04,WeatherDisplay:10.37,2013-03-12 10:10:00,
2013-03-12 06:15:00,60.4,59.0,29.85,North,0,0.0,0.0,95,0.08,RA,FEW,0.08,WeatherDisplay:10.37,2013-03-12 10:15:00,
2013-03-12 06:20:00,60.4,59.0,29.85,North,0,0.0,0.0,95,0.08,RA,FEW,0.08,WeatherDisplay:10.37,2013-03-12 10:20:00,
2013-03-12 06:25:00,60.4,59.0,29.85,North,0,0.0,0.0,95,0.08,,FEW,0.08,WeatherDisplay:10.37,2013-03-12 10:25:00,
2013-03-12 06:30:00,60.6,59.2,29.85,North,0,0.0,0.0,95,0.08,CLR,FEW,0.08,WeatherDisplay:10.37,2013-03-12 10:30:00,
2013-03-12 06:35:00,60.6,59.2,29.85,North,0,0.0,0.0,95,0.08,CLR,FEW,0.08,WeatherDisplay:10.37,2013-03-12 10:35:00,
2013-03-12 06:40:00,60.6,59.2,29.85,North,0,0.0,0.0,95,0.08,CLR,FEW,0.08,WeatherDisplay:10.37,2013-03-12 10:40:00,
2013-03-12 06:45:00,60.6,59.2,29.85,North,0,0.0,0.0,95,0.08,CLR,FEW,0.08,WeatherDisplay:10.37,2013-03-12 10:45:00,
2013-03-12 06:50:00,60.6,59.2,29.85,North,0,0.0,0.0,95,0.08,CLR,FEW,0.08,WeatherDisplay:10.37,2013-03-12 10:50:00,
2013-03-12 06:55:00,60.6,59.2,29.85,North,0,0.0,0.0,95,0.12,RA,FEW,0.12,WeatherDisplay:10.37,2013-03-12 10:55:00,
2013-03-12 07:00:00,60.8,59.4,29.85,North,0,0.0,0.0,95,0.16,RA,FEW,0.16,WeatherDisplay:10.37,2013-03-12 11:00:00,
2013-03-12 07:05:00,60.8,59.4,29.85,North,0,0.0,0.0,95,0.16,RA,FEW,0.20,WeatherDisplay:10.37,2013-03-12 11:05:00,
2013-03-12 07:10:00,60.8,59.4,29.85,North,0,0.0,0.0,95,0.16,RA,FEW,0.20,WeatherDisplay:10.37,2013-03-12 11:10:00,
2013-03-12 07:15:00,60.8,59.4,29.85,North,0,0.0,0.0,95,0.12,RA,FEW,0.20,WeatherDisplay:10.37,2013-03-12 11:15:00,
2013-03-12 07:21:00,61.0,59.5,29.85,North,0,0.0,0.0,95,0.12,CLR,FEW,0.24,WeatherDisplay:10.37,2013-03-12 11:21:00,
2013-03-12 07:26:00,61.2,59.7,29.85,North,0,0.0,0.0,95,0.16,RA,FEW,0.24,WeatherDisplay:10.37,2013-03-12 11:26:00,
2013-03-12 07:31:00,61.2,59.7,29.85,North,0,0.0,0.0,95,0.16,RA,FEW,0.24,WeatherDisplay:10.37,2013-03-12 11:31:00,
2013-03-12 07:36:00,61.3,59.9,29.85,North,0,0.0,0.0,95,0.16,CLR,FEW,0.24,WeatherDisplay:10.37,2013-03-12 11:36:00,
2013-03-12 07:41:00,61.3,60.2,29.85,North,0,0.0,0.0,96,0.16,CLR,FEW,0.24,WeatherDisplay:10.37,2013-03-12 11:41:00,
2013-03-12 07:46:00,61.5,60.4,29.85,North,0,0.0,0.0,96,0.16,CLR,FEW,0.24,WeatherDisplay:10.37,2013-03-12 11:46:00,
2013-03-12 07:51:00,61.5,60.4,29.85,North,0,0.0,0.0,96,0.16,CLR,FEW,0.24,WeatherDisplay:10.37,2013-03-12 11:51:00,
2013-03-12 07:56:00,61.3,59.9,29.85,North,0,0.0,0.0,95,0.12,CLR,FEW,0.24,WeatherDisplay:10.37,2013-03-12 11:56:00,
2013-03-12 08:01:00,61.2,59.7,29.83,North,0,0.0,0.0,95,0.08,CLR,FEW,0.24,WeatherDisplay:10.37,2013-03-12 12:01:00,
2013-03-12 08:06:00,61.0,59.5,29.83,North,0,0.0,0.0,95,0.08,CLR,FEW,0.24,WeatherDisplay:10.37,2013-03-12 12:06:00,
2013-03-12 08:11:00,60.8,59.4,29.83,North,0,0.0,0.0,95,0.04,CLR,FEW,0.24,WeatherDisplay:10.37,2013-03-12 12:11:00,
2013-03-12 08:16:00,60.4,59.3,29.83,North,0,0.0,0.0,96,0.04,CLR,FEW,0.24,WeatherDisplay:10.37,2013-03-12 12:16:00,
2013-03-12 08:21:00,59.9,58.5,29.83,North,0,0.0,0.0,95,0.04,CLR,FEW,0.24,WeatherDisplay:10.37,2013-03-12 12:21:00,
2013-03-12 08:26:00,59.5,58.1,29.83,North,0,0.0,0.0,95,0.00,CLR,FEW,0.24,WeatherDisplay:10.37,2013-03-12 12:26:00,
2013-03-12 08:31:00,59.4,57.9,29.83,North,0,0.0,0.0,95,0.00,CLR,FEW,0.24,WeatherDisplay:10.37,2013-03-12 12:31:00,
2013-03-12 08:36:00,59.2,57.7,29.83,North,0,0.0,0.0,95,0.00,CLR,FEW,0.24,WeatherDisplay:10.37,2013-03-12 12:36:00,
2013-03-12 08:41:00,59.2,58.0,29.83,North,0,0.0,0.0,96,0.00,CLR,FEW,0.24,WeatherDisplay:10.37,2013-03-12 12:41:00,
2013-03-12 08:46:00,59.2,58.0,29.85,North,0,0.0,0.0,96,0.00,CLR,FEW,0.24,WeatherDisplay:10.37,2013-03-12 12:46:00,
2013-03-12 08:51:00,59.2,58.0,29.85,North,0,0.0,0.0,96,0.00,CLR,FEW,0.24,WeatherDisplay:10.37,2013-03-12 12:51:00,
2013-03-12 08:56:00,59.4,58.5,29.85,North,0,0.0,0.0,97,0.00,CLR,FEW,0.24,WeatherDisplay:10.37,2013-03-12 12:56:00,
2013-03-12 09:01:00,59.5,58.7,29.85,North,0,0.0,0.0,97,0.00,CLR,FEW,0.24,WeatherDisplay:10.37,2013-03-12 13:01:00,
2013-03-12 09:06:00,59.5,58.7,29.85,North,0,0.0,0.0,97,0.00,CLR,FEW,0.24,WeatherDisplay:10.37,2013-03-12 13:06:00,
2013-03-12 09:11:00,59.7,58.9,29.85,North,0,0.0,0.0,97,0.00,CLR,FEW,0.24,WeatherDisplay:10.37,2013-03-12 13:11:00,
2013-03-12 09:16:00,59.7,58.9,29.85,North,0,0.0,0.0,97,0.00,CLR,FEW,0.24,WeatherDisplay:10.37,2013-03-12 13:16:00,
2013-03-12 09:21:00,59.7,58.9,29.85,North,0,0.0,0.0,97,0.00,CLR,FEW,0.24,WeatherDisplay:10.37,2013-03-12 13:21:00,
2013-03-12 09:26:00,59.9,59.0,29.85,North,0,0.0,0.0,97,0.00,CLR,FEW,0.24,WeatherDisplay:10.37,2013-03-12 13:26:00,
2013-03-12 09:31:00,60.1,59.2,29.85,North,0,0.0,0.0,97,0.00,CLR,FEW,0.24,WeatherDisplay:10.37,2013-03-12 13:31:00,
2013-03-12 09:36:00,59.9,59.0,29.85,North,0,0.0,0.0,97,0.00,CLR,FEW,0.24,WeatherDisplay:10.37,2013-03-12 13:36:00,
2013-03-12 09:41:00,59.5,58.7,29.85,North,0,0.0,0.0,97,0.00,CLR,FEW,0.24,WeatherDisplay:10.37,2013-03-12 13:41:00,
2013-03-12 09:46:00,59.5,58.7,29.85,North,0,0.0,0.0,97,0.00,CLR,FEW,0.24,WeatherDisplay:10.37,2013-03-12 13:46:00,
2013-03-12 09:51:00,59.7,58.9,29.85,North,0,0.0,0.0,97,0.00,CLR,FEW,0.24,WeatherDisplay:10.37,2013-03-12 13:51:00,
2013-03-12 09:56:00,59.9,59.3,29.85,North,0,0.0,0.0,98,0.00,CLR,FEW,0.24,WeatherDisplay:10.37,2013-03-12 13:56:00,
2013-03-12 10:02:00,60.1,59.5,29.85,North,0,0.0,0.0,98,0.00,CLR,FEW,0.24,WeatherDisplay:10.37,2013-03-12 14:02:00,
2013-03-12 10:08:00,60.1,59.5,29.85,North,0,0.0,0.0,98,0.00,CLR,FEW,0.24,WeatherDisplay:10.37,2013-03-12 14:08:00,
2013-03-12 10:13:00,60.1,59.5,29.85,North,0,0.0,0.0,98,0.00,CLR,FEW,0.24,WeatherDisplay:10.37,2013-03-12 14:13:00,
2013-03-12 10:18:00,59.9,59.3,29.85,North,0,0.0,0.0,98,0.00,CLR,FEW,0.24,WeatherDisplay:10.37,2013-03-12 14:18:00,
2013-03-12 10:23:00,59.7,59.2,29.85,North,0,0.0,0.0,98,0.00,CLR,FEW,0.24,WeatherDisplay:10.37,2013-03-12 14:23:00,
2013-03-12 10:29:00,59.9,59.3,29.85,North,0,0.0,0.0,98,0.00,CLR,FEW,0.24,WeatherDisplay:10.37,2013-03-12 14:29:00,
2013-03-12 10:34:00,59.9,59.3,29.85,North,0,0.0,0.0,98,0.00,CLR,FEW,0.24,WeatherDisplay:10.37,2013-03-12 14:34:00,
2013-03-12 10:39:00,60.1,59.5,29.85,North,0,0.0,0.0,98,0.00,CLR,FEW,0.24,WeatherDisplay:10.37,2013-03-12 14:39:00,
2013-03-12 10:44:00,60.1,59.5,29.85,North,0,0.0,0.0,98,0.00,CLR,FEW,0.24,WeatherDisplay:10.37,2013-03-12 14:44:00,
2013-03-12 10:50:00,60.1,59.5,29.85,North,0,0.0,0.0,98,0.00,CLR,FEW,0.24,WeatherDisplay:10.37,2013-03-12 14:50:00,
2013-03-12 10:55:00,60.4,59.9,29.85,North,0,0.0,0.0,98,0.00,CLR,FEW,0.24,WeatherDisplay:10.37,2013-03-12 14:55:00,
2013-03-12 11:01:00,60.4,59.9,29.85,North,0,0.0,0.0,98,0.00,CLR,FEW,0.24,WeatherDisplay:10.37,2013-03-12 15:01:00,
2013-03-12 11:07:00,60.6,60.1,29.85,North,0,0.0,0.0,98,0.00,CLR,FEW,0.24,WeatherDisplay:10.37,2013-03-12 15:07:00,
2013-03-12 11:12:00,60.6,60.1,29.85,North,0,0.0,0.0,98,0.00,CLR,FEW,0.24,WeatherDisplay:10.37,2013-03-12 15:12:00,
2013-03-12 11:18:00,61.0,60.4,29.85,North,0,0.0,0.0,98,0.00,CLR,FEW,0.24,WeatherDisplay:10.37,2013-03-12 15:18:00,
2013-03-12 11:23:00,61.3,60.8,29.85,North,0,0.0,0.0,98,0.00,CLR,FEW,0.24,WeatherDisplay:10.37,2013-03-12 15:23:00,
2013-03-12 11:28:00,61.5,61.0,29.85,North,0,0.0,0.0,98,0.00,CLR,FEW,0.24,WeatherDisplay:10.37,2013-03-12 15:28:00,
2013-03-12 11:34:00,61.5,61.0,29.85,North,0,0.0,0.0,98,0.00,CLR,FEW,0.24,WeatherDisplay:10.37,2013-03-12 15:34:00,
2013-03-12 11:40:00,62.1,61.5,29.85,North,0,0.0,0.0,98,0.00,CLR,FEW,0.24,WeatherDisplay:10.37,2013-03-12 15:40:00,
2013-03-12 11:45:00,62.8,62.2,29.85,North,0,0.0,0.0,98,0.00,CLR,FEW,0.24,WeatherDisplay:10.37,2013-03-12 15:45:00,
2013-03-12 11:50:00,63.5,62.9,29.85,North,0,0.0,0.0,98,0.00,CLR,FEW,0.24,WeatherDisplay:10.37,2013-03-12 15:50:00,
2013-03-12 11:55:00,64.2,63.6,29.85,North,0,0.0,0.0,98,0.00,CLR,FEW,0.24,WeatherDisplay:10.37,2013-03-12 15:55:00,
2013-03-12 12:00:00,64.8,64.2,29.85,North,0,0.0,0.0,98,0.00,CLR,FEW,0.24,WeatherDisplay:10.37,2013-03-12 16:00:00,
2013-03-12 12:05:00,65.1,64.5,29.85,North,0,0.0,0.0,98,0.00,CLR,FEW,0.24,WeatherDisplay:10.37,2013-03-12 16:05:00,
2013-03-12 12:11:00,65.5,64.9,29.85,North,0,0.0,0.0,98,0.00,CLR,FEW,0.24,WeatherDisplay:10.37,2013-03-12 16:11:00,
2013-03-12 12:16:00,65.7,65.1,29.85,North,0,0.0,0.0,98,0.00,CLR,FEW,0.24,WeatherDisplay:10.37,2013-03-12 16:16:00,
2013-03-12 12:21:00,65.8,65.3,29.85,North,0,0.0,0.0,98,0.00,CLR,FEW,0.24,WeatherDisplay:10.37,2013-03-12 16:21:00,
2013-03-12 12:26:00,66.2,65.6,29.85,North,0,0.0,0.0,98,0.00,CLR,FEW,0.24,WeatherDisplay:10.37,2013-03-12 16:26:00,
2013-03-12 12:31:00,66.6,66.0,29.85,North,0,0.0,0.0,98,0.00,CLR,FEW,0.24,WeatherDisplay:10.37,2013-03-12 16:31:00,
2013-03-12 12:36:00,67.3,66.4,29.85,North,0,0.0,0.0,97,0.00,CLR,FEW,0.24,WeatherDisplay:10.37,2013-03-12 16:36:00,
2013-03-12 12:41:00,67.6,65.9,29.85,North,0,0.0,0.0,94,0.00,CLR,FEW,0.24,WeatherDisplay:10.37,2013-03-12 16:41:00,
2013-03-12 12:46:00,67.6,64.6,29.85,North,0,0.0,0.0,90,0.00,CLR,FEW,0.24,WeatherDisplay:10.37,2013-03-12 16:46:00,
2013-03-12 12:51:00,67.5,60.0,29.85,North,0,0.0,0.0,77,0.00,CLR,FEW,0.24,WeatherDisplay:10.37,2013-03-12 16:51:00,
2013-03-12 12:56:00,67.8,58.1,29.85,North,0,0.0,0.0,71,0.00,CLR,FEW,0.24,WeatherDisplay:10.37,2013-03-12 16:56:00,
2013-03-12 13:01:00,68.0,57.8,29.85,North,0,0.0,0.0,70,0.00,CLR,FEW,0.24,WeatherDisplay:10.37,2013-03-12 17:01:00,
2013-03-12 13:06:00,68.0,57.8,29.85,North,0,0.0,0.0,70,0.00,CLR,FEW,0.24,WeatherDisplay:10.37,2013-03-12 17:06:00,
2013-03-12 13:11:00,68.5,55.4,29.85,North,0,0.0,0.0,63,0.00,CLR,FEW,0.24,WeatherDisplay:10.37,2013-03-12 17:11:00,
2013-03-12 13:16:00,68.5,53.6,29.85,North,0,0.0,0.0,59,0.00,CLR,FEW,0.24,WeatherDisplay:10.37,2013-03-12 17:16:00,
2013-03-12 13:22:00,68.5,51.2,29.85,North,0,0.0,0.0,54,0.00,CLR,FEW,0.24,WeatherDisplay:10.37,2013-03-12 17:22:00,
2013-03-12 13:27:00,68.7,51.4,29.85,North,0,0.0,0.0,54,0.00,CLR,FEW,0.24,WeatherDisplay:10.37,2013-03-12 17:27:00,
2013-03-12 13:32:00,68.7,49.3,29.83,North,0,0.0,0.0,50,0.00,CLR,FEW,0.24,WeatherDisplay:10.37,2013-03-12 17:32:00,
2013-03-12 13:37:00,69.1,49.7,29.83,North,0,0.0,0.0,50,0.00,CLR,FEW,0.24,WeatherDisplay:10.37,2013-03-12 17:37:00,
2013-03-12 13:42:00,69.4,49.4,29.83,North,0,0.0,0.0,49,0.00,CLR,FEW,0.24,WeatherDisplay:10.37,2013-03-12 17:42:00,
2013-03-12 13:48:00,70.0,48.2,29.83,North,0,0.0,0.0,46,0.00,CLR,FEW,0.24,WeatherDisplay:10.37,2013-03-12 17:48:00,
2013-03-12 13:53:00,70.2,48.4,29.83,North,0,0.0,0.0,46,0.00,CLR,FEW,0.24,WeatherDisplay:10.37,2013-03-12 17:53:00,
2013-03-12 13:58:00,70.5,47.5,29.83,North,0,0.0,0.0,44,0.00,CLR,FEW,0.24,WeatherDisplay:10.37,2013-03-12 17:58:00,
2013-03-12 14:03:00,70.7,47.1,29.83,North,0,0.0,0.0,43,0.00,CLR,FEW,0.24,WeatherDisplay:10.37,2013-03-12 18:03:00,
2013-03-12 14:08:00,70.3,47.4,29.83,North,0,0.0,0.0,44,0.00,CLR,FEW,0.24,WeatherDisplay:10.37,2013-03-12 18:08:00,
2013-03-12 14:13:00,70.2,47.2,29.83,North,0,0.0,0.0,44,0.00,CLR,FEW,0.24,WeatherDisplay:10.37,2013-03-12 18:13:00,
2013-03-12 14:18:00,70.0,47.1,29.83,North,0,0.0,0.0,44,0.00,CLR,FEW,0.24,WeatherDisplay:10.37,2013-03-12 18:18:00,
2013-03-12 14:23:00,69.6,47.3,29.83,North,0,0.0,0.0,45,0.00,CLR,FEW,0.24,WeatherDisplay:10.37,2013-03-12 18:23:00,
2013-03-12 14:28:00,69.6,47.9,29.80,North,0,0.0,0.0,46,0.00,CLR,FEW,0.24,WeatherDisplay:10.37,2013-03-12 18:28:00,
2013-03-12 14:33:00,69.6,47.3,29.80,North,0,0.0,0.0,45,0.00,CLR,FEW,0.24,WeatherDisplay:10.37,2013-03-12 18:33:00,
2013-03-12 14:38:00,69.6,47.9,29.80,North,0,0.0,0.0,46,0.00,CLR,FEW,0.24,WeatherDisplay:10.37,2013-03-12 18:38:00,
2013-03-12 14:43:00,69.4,48.3,29.80,North,0,0.0,0.0,47,0.00,CLR,FEW,0.24,WeatherDisplay:10.37,2013-03-12 18:43:00,
2013-03-12 14:49:00,69.1,48.6,29.80,North,0,0.0,0.0,48,0.00,CLR,FEW,0.24,WeatherDisplay:10.37,2013-03-12 18:49:00,
2013-03-12 14:54:00,68.7,48.8,29.80,North,0,0.0,0.0,49,0.00,CLR,FEW,0.24,WeatherDisplay:10.37,2013-03-12 18:54:00,
2013-03-12 14:59:00,68.2,48.8,29.80,North,0,0.0,0.0,50,0.00,CLR,FEW,0.24,WeatherDisplay:10.37,2013-03-12 18:59:00,
2013-03-12 15:04:00,66.9,48.7,29.80,North,0,0.0,0.0,52,0.00,CLR,FEW,0.24,WeatherDisplay:10.37,2013-03-12 19:04:00,
2013-03-12 15:09:00,66.0,50.8,29.80,North,0,0.0,0.0,58,0.00,CLR,FEW,0.24,WeatherDisplay:10.37,2013-03-12 19:09:00,
2013-03-12 15:14:00,65.8,52.9,29.80,North,0,0.0,0.0,63,0.00,CLR,FEW,0.24,WeatherDisplay:10.37,2013-03-12 19:14:00,
2013-03-12 15:19:00,65.5,53.4,29.80,North,0,0.0,0.0,65,0.00,CLR,FEW,0.24,WeatherDisplay:10.37,2013-03-12 19:19:00,
2013-03-12 15:24:00,65.3,53.6,29.80,North,0,0.0,0.0,66,0.00,CLR,FEW,0.24,WeatherDisplay:10.37,2013-03-12 19:24:00,
2013-03-12 15:29:00,64.9,53.3,29.80,North,0,0.0,0.0,66,0.00,CLR,FEW,0.24,WeatherDisplay:10.37,2013-03-12 19:29:00,
2013-03-12 15:34:00,64.8,53.5,29.80,North,0,0.0,0.0,67,0.00,CLR,FEW,0.24,WeatherDisplay:10.37,2013-03-12 19:34:00,
2013-03-12 15:39:00,64.6,53.8,29.80,North,0,0.0,0.0,68,0.00,CLR,FEW,0.24,WeatherDisplay:10.37,2013-03-12 19:39:00,
2013-03-12 15:44:00,64.4,54.0,29.80,North,0,0.0,0.0,69,0.00,CLR,FEW,0.24,WeatherDisplay:10.37,2013-03-12 19:44:00,
2013-03-12 15:49:00,64.2,53.8,29.80,North,0,0.0,0.0,69,0.00,CLR,FEW,0.24,WeatherDisplay:10.37,2013-03-12 19:49:00,
2013-03-12 15:54:00,63.9,53.9,29.80,North,0,0.0,0.0,70,0.00,CLR,FEW,0.24,WeatherDisplay:10.37,2013-03-12 19:54:00,
2013-03-12 15:59:00,63.5,53.5,29.80,North,0,0.0,0.0,70,0.00,CLR,FEW,0.24,WeatherDisplay:10.37,2013-03-12 19:59:00,
2013-03-12 16:04:00,63.3,54.1,29.80,North,0,0.0,0.0,72,0.00,CLR,FEW,0.24,WeatherDisplay:10.37,2013-03-12 20:04:00,
2013-03-12 16:09:00,63.1,54.3,29.80,North,0,0.0,0.0,73,0.00,CLR,FEW,0.24,WeatherDisplay:10.37,2013-03-12 20:09:00,
2013-03-12 16:14:00,63.1,54.7,29.77,North,0,0.0,0.0,74,0.00,CLR,FEW,0.24,WeatherDisplay:10.37,2013-03-12 20:14:00,
2013-03-12 16:19:00,63.1,55.1,29.77,North,0,0.0,0.0,75,0.00,CLR,FEW,0.24,WeatherDisplay:10.37,2013-03-12 20:19:00,
2013-03-12 16:24:00,63.3,54.9,29.77,North,0,0.0,0.0,74,0.00,CLR,FEW,0.24,WeatherDisplay:10.37,2013-03-12 20:24:00,
2013-03-12 16:29:00,64.0,56.0,29.77,North,0,0.0,0.0,75,0.00,CLR,FEW,0.24,WeatherDisplay:10.37,2013-03-12 20:29:00,
2013-03-12 16:34:00,64.4,55.2,29.77,North,0,0.0,0.0,72,0.00,CLR,FEW,0.24,WeatherDisplay:10.37,2013-03-12 20:34:00,
2013-03-12 16:39:00,64.4,54.4,29.77,North,0,0.0,0.0,70,0.00,CLR,FEW,0.24,WeatherDisplay:10.37,2013-03-12 20:39:00,
2013-03-12 16:44:00,64.2,53.8,29.77,North,0,0.0,0.0,69,0.00,CLR,FEW,0.24,WeatherDisplay:10.37,2013-03-12 20:44:00,
2013-03-12 16:49:00,64.6,54.2,29.77,North,0,0.0,0.0,69,0.00,CLR,FEW,0.24,WeatherDisplay:10.37,2013-03-12 20:49:00,
2013-03-12 16:54:00,65.1,54.7,29.77,North,0,0.0,0.0,69,0.00,CLR,FEW,0.24,WeatherDisplay:10.37,2013-03-12 20:54:00,
2013-03-12 16:59:00,65.3,54.5,29.77,North,0,0.0,0.0,68,0.00,CLR,FEW,0.24,WeatherDisplay:10.37,2013-03-12 20:59:00,
2013-03-12 17:04:00,65.3,53.6,29.77,North,0,0.0,0.0,66,0.00,CLR,FEW,0.24,WeatherDisplay:10.37,2013-03-12 21:04:00,
2013-03-12 17:09:00,65.3,53.2,29.77,North,0,0.0,0.0,65,0.00,CLR,FEW,0.24,WeatherDisplay:10.37,2013-03-12 21:09:00,
2013-03-12 17:14:00,65.5,53.8,29.77,North,0,0.0,0.0,66,0.00,CLR,FEW,0.24,WeatherDisplay:10.37,2013-03-12 21:14:00,
2013-03-12 17:19:00,65.8,54.2,29.77,North,0,0.0,0.0,66,0.00,CLR,FEW,0.24,WeatherDisplay:10.37,2013-03-12 21:19:00,
2013-03-12 17:24:00,65.8,53.7,29.77,North,0,0.0,0.0,65,0.00,CLR,FEW,0.24,WeatherDisplay:10.37,2013-03-12 21:24:00,
2013-03-12 17:29:00,65.8,53.3,29.77,North,0,0.0,0.0,64,0.00,CLR,FEW,0.24,WeatherDisplay:10.37,2013-03-12 21:29:00,
2013-03-12 17:34:00,65.7,53.6,29.77,North,0,0.0,0.0,65,0.00,CLR,FEW,0.24,WeatherDisplay:10.37,2013-03-12 21:34:00,
2013-03-12 17:39:00,65.7,53.1,29.77,North,0,0.0,0.0,64,0.00,CLR,FEW,0.24,WeatherDisplay:10.37,2013-03-12 21:39:00,
2013-03-12 17:44:00,65.3,52.8,29.77,North,0,0.0,0.0,64,0.00,CLR,FEW,0.24,WeatherDisplay:10.37,2013-03-12 21:44:00,
2013-03-12 17:49:00,64.9,52.5,29.77,North,0,0.0,0.0,64,0.00,CLR,FEW,0.24,WeatherDisplay:10.37,2013-03-12 21:49:00,
2013-03-12 17:54:00,64.8,52.3,29.77,North,0,0.0,0.0,64,0.00,CLR,FEW,0.24,WeatherDisplay:10.37,2013-03-12 21:54:00,
2013-03-12 17:59:00,64.4,52.4,29.77,North,0,0.0,0.0,65,0.00,CLR,FEW,0.24,WeatherDisplay:10.37,2013-03-12 21:59:00,
2013-03-12 18:04:00,64.2,52.6,29.77,North,0,0.0,0.0,66,0.00,CLR,FEW,0.24,WeatherDisplay:10.37,2013-03-12 22:04:00,
2013-03-12 18:09:00,63.9,52.7,29.77,North,0,0.0,0.0,67,0.00,CLR,FEW,0.24,WeatherDisplay:10.37,2013-03-12 22:09:00,
2013-03-12 18:14:00,63.7,52.9,29.77,North,0,0.0,0.0,68,0.00,CLR,FEW,0.24,WeatherDisplay:10.37,2013-03-12 22:14:00,
2013-03-12 18:19:00,63.3,53.0,29.77,North,0,0.0,0.0,69,0.00,CLR,FEW,0.24,WeatherDisplay:10.37,2013-03-12 22:19:00,
2013-03-12 18:24:00,63.0,53.0,29.77,North,0,0.0,0.0,70,0.00,CLR,FEW,0.24,WeatherDisplay:10.37,2013-03-12 22:24:00,
2013-03-12 18:29:00,62.8,53.6,29.77,North,0,0.0,0.0,72,0.00,CLR,FEW,0.24,WeatherDisplay:10.37,2013-03-12 22:29:00,
2013-03-12 18:34:00,62.8,54.0,29.77,North,0,0.0,0.0,73,0.00,CLR,FEW,0.24,WeatherDisplay:10.37,2013-03-12 22:34:00,
2013-03-12 18:39:00,62.6,54.9,29.77,North,0,0.0,0.0,76,0.00,CLR,FEW,0.24,WeatherDisplay:10.37,2013-03-12 22:39:00,
2013-03-12 18:44:00,62.4,55.1,29.77,North,0,0.0,0.0,77,0.00,CLR,FEW,0.24,WeatherDisplay:10.37,2013-03-12 22:44:00,
2013-03-12 18:49:00,62.2,55.3,29.77,North,0,0.0,0.0,78,0.00,CLR,FEW,0.24,WeatherDisplay:10.37,2013-03-12 22:49:00,
2013-03-12 18:54:00,61.9,55.3,29.77,North,0,0.0,0.0,79,0.00,CLR,FEW,0.24,WeatherDisplay:10.37,2013-03-12 22:54:00,
2013-03-12 18:59:00,61.7,55.1,29.80,North,0,0.0,0.0,79,0.00,CLR,FEW,0.24,WeatherDisplay:10.37,2013-03-12 22:59:00,
2013-03-12 19:04:00,61.5,54.9,29.80,North,0,0.0,0.0,79,0.00,CLR,FEW,0.24,WeatherDisplay:10.37,2013-03-12 23:04:00,
2013-03-12 19:09:00,61.3,54.8,29.80,North,0,0.0,0.0,79,0.00,CLR,FEW,0.24,WeatherDisplay:10.37,2013-03-12 23:09:00,
2013-03-12 19:14:00,61.2,54.9,29.80,North,0,0.0,0.0,80,0.00,CLR,FEW,0.24,WeatherDisplay:10.37,2013-03-12 23:14:00,
2013-03-12 19:19:00,61.0,54.8,29.80,North,0,0.0,0.0,80,0.00,CLR,FEW,0.24,WeatherDisplay:10.37,2013-03-12 23:19:00,
2013-03-12 19:24:00,60.8,54.6,29.80,North,0,0.0,0.0,80,0.00,CLR,FEW,0.24,WeatherDisplay:10.37,2013-03-12 23:24:00,
2013-03-12 19:29:00,60.4,54.6,29.80,North,0,0.0,0.0,81,0.00,CLR,FEW,0.24,WeatherDisplay:10.37,2013-03-12 23:29:00,
2013-03-12 19:34:00,60.1,54.2,29.80,North,0,0.0,0.0,81,0.00,CLR,FEW,0.24,WeatherDisplay:10.37,2013-03-12 23:34:00,
2013-03-12 19:39:00,60.1,54.6,29.80,North,0,0.0,0.0,82,0.00,CLR,FEW,0.24,WeatherDisplay:10.37,2013-03-12 23:39:00,
2013-03-12 19:44:00,60.1,54.6,29.80,North,0,0.0,0.0,82,0.00,CLR,FEW,0.24,WeatherDisplay:10.37,2013-03-12 23:44:00,
2013-03-12 19:49:00,60.1,54.9,29.80,North,0,0.0,0.0,83,0.00,CLR,FEW,0.24,WeatherDisplay:10.37,2013-03-12 23:49:00,
2013-03-12 19:54:00,60.1,54.9,29.80,North,0,0.0,0.0,83,0.00,CLR,FEW,0.24,WeatherDisplay:10.37,2013-03-12 23:54:00,
2013-03-12 19:59:00,59.9,54.7,29.83,North,0,0.0,0.0,83,0.00,CLR,FEW,0.24,WeatherDisplay:10.37,2013-03-12 23:59:00,
2013-03-12 20:04:00,59.7,54.5,29.83,North,0,0.0,0.0,83,0.00,CLR,FEW,0.24,WeatherDisplay:10.37,2013-03-13 00:04:00,
2013-03-12 20:09:00,59.4,54.5,29.83,North,0,0.0,0.0,84,0.00,CLR,FEW,0.24,WeatherDisplay:10.37,2013-03-13 00:09:00,
2013-03-12 20:14:00,59.2,54.3,29.83,North,0,0.0,0.0,84,0.00,CLR,FEW,0.24,WeatherDisplay:10.37,2013-03-13 00:14:00,
2013-03-12 20:19:00,59.0,54.2,29.83,North,0,0.0,0.0,84,0.00,CLR,FEW,0.24,WeatherDisplay:10.37,2013-03-13 00:19:00,
2013-03-12 20:24:00,58.8,54.3,29.83,North,0,0.0,0.0,85,0.00,CLR,FEW,0.24,WeatherDisplay:10.37,2013-03-13 00:24:00,
2013-03-12 20:29:00,58.6,54.1,29.83,North,0,0.0,0.0,85,0.00,CLR,FEW,0.24,WeatherDisplay:10.37,2013-03-13 00:29:00,
2013-03-12 20:34:00,58.5,54.0,29.83,North,0,0.0,0.0,85,0.00,CLR,FEW,0.24,WeatherDisplay:10.37,2013-03-13 00:34:00,
2013-03-12 20:39:00,58.3,54.1,29.83,North,0,0.0,0.0,86,0.00,CLR,FEW,0.24,WeatherDisplay:10.37,2013-03-13 00:39:00,
2013-03-12 20:44:00,58.3,54.1,29.83,North,0,0.0,0.0,86,0.00,CLR,FEW,0.24,WeatherDisplay:10.37,2013-03-13 00:44:00,
2013-03-12 20:49:00,58.1,53.9,29.83,North,0,0.0,0.0,86,0.00,CLR,FEW,0.24,WeatherDisplay:10.37,2013-03-13 00:49:00,
2013-03-12 20:54:00,57.7,53.6,29.83,North,0,0.0,0.0,86,0.00,CLR,FEW,0.24,WeatherDisplay:10.37,2013-03-13 00:54:00,
2013-03-12 20:59:00,57.6,53.4,29.83,North,0,0.0,0.0,86,0.00,CLR,FEW,0.24,WeatherDisplay:10.37,2013-03-13 00:59:00,
2013-03-12 21:04:00,57.4,53.2,29.83,North,0,0.0,0.0,86,0.00,CLR,FEW,0.24,WeatherDisplay:10.37,2013-03-13 01:04:00,
2013-03-12 21:09:00,57.4,53.2,29.83,North,0,0.0,0.0,86,0.00,CLR,FEW,0.24,WeatherDisplay:10.37,2013-03-13 01:09:00,
2013-03-12 21:14:00,57.2,53.4,29.85,North,0,0.0,0.0,87,0.00,CLR,FEW,0.24,WeatherDisplay:10.37,2013-03-13 01:14:00,
2013-03-12 21:19:00,57.4,53.5,29.85,North,0,0.0,0.0,87,0.00,CLR,FEW,0.24,WeatherDisplay:10.37,2013-03-13 01:19:00,
2013-03-12 21:24:00,57.4,53.9,29.85,North,0,0.0,0.0,88,0.00,CLR,FEW,0.24,WeatherDisplay:10.37,2013-03-13 01:24:00,
2013-03-12 21:29:00,57.6,54.0,29.85,North,0,0.0,0.0,88,0.00,CLR,FEW,0.24,WeatherDisplay:10.37,2013-03-13 01:29:00,
2013-03-12 21:34:00,57.9,54.7,29.85,North,0,0.0,0.0,89,0.00,CLR,FEW,0.24,WeatherDisplay:10.37,2013-03-13 01:34:00,
2013-03-12 21:39:00,58.5,55.5,29.85,North,0,0.0,0.0,90,0.00,CLR,FEW,0.24,WeatherDisplay:10.37,2013-03-13 01:39:00,
2013-03-12 21:44:00,59.0,55.4,29.85,North,0,0.0,0.0,88,0.00,CLR,FEW,0.24,WeatherDisplay:10.37,2013-03-13 01:44:00,
2013-03-12 21:49:00,59.2,55.0,29.85,North,0,0.0,0.0,86,0.00,CLR,FEW,0.24,WeatherDisplay:10.37,2013-03-13 01:49:00,
2013-03-12 21:54:00,59.2,54.0,29.85,North,0,0.0,0.0,83,0.00,CLR,FEW,0.24,WeatherDisplay:10.37,2013-03-13 01:54:00,
2013-03-12 21:59:00,59.2,53.4,29.85,North,0,0.0,0.0,81,0.00,CLR,FEW,0.24,WeatherDisplay:10.37,2013-03-13 01:59:00,
2013-03-12 22:04:00,59.2,52.3,29.85,North,0,0.0,0.0,78,0.00,CLR,FEW,0.24,WeatherDisplay:10.37,2013-03-13 02:04:00,
2013-03-12 22:09:00,59.2,49.4,29.85,North,0,0.0,0.0,70,0.00,CLR,FEW,0.24,WeatherDisplay:10.37,2013-03-13 02:09:00,
2013-03-12 22:14:00,59.4,47.2,29.85,North,0,0.0,0.0,64,0.00,CLR,FEW,0.24,WeatherDisplay:10.37,2013-03-13 02:14:00,
2013-03-12 22:19:00,59.5,45.6,29.85,North,0,0.0,0.0,60,0.00,CLR,FEW,0.24,WeatherDisplay:10.37,2013-03-13 02:19:00,
2013-03-12 22:24:00,59.5,42.9,29.85,North,0,0.0,0.0,54,0.00,CLR,FEW,0.24,WeatherDisplay:10.37,2013-03-13 02:24:00,
2013-03-12 22:29:00,59.7,42.1,29.85,North,0,0.0,0.0,52,0.00,CLR,FEW,0.24,WeatherDisplay:10.37,2013-03-13 02:29:00,
2013-03-12 22:34:00,59.7,40.5,29.85,North,0,0.0,0.0,49,0.00,CLR,FEW,0.24,WeatherDisplay:10.37,2013-03-13 02:34:00,
2013-03-12 22:39:00,59.9,40.1,29.85,North,0,0.0,0.0,48,0.00,CLR,FEW,0.24,WeatherDisplay:10.37,2013-03-13 02:39:00,
2013-03-12 22:44:00,59.9,39.6,29.85,North,0,0.0,0.0,47,0.00,CLR,FEW,0.24,WeatherDisplay:10.37,2013-03-13 02:44:00,
2013-03-12 22:49:00,59.7,38.9,29.85,North,0,0.0,0.0,46,0.00,CLR,FEW,0.24,WeatherDisplay:10.37,2013-03-13 02:49:00,
2013-03-12 22:54:00,59.9,38.5,29.85,North,0,0.0,0.0,45,0.00,CLR,FEW,0.24,WeatherDisplay:10.37,2013-03-13 02:54:00,
2013-03-12 22:59:00,59.9,38.5,29.88,North,0,0.0,0.0,45,0.00,CLR,FEW,0.24,WeatherDisplay:10.37,2013-03-13 02:59:00,
2013-03-12 23:04:00,59.7,38.3,29.88,North,0,0.0,0.0,45,0.00,CLR,FEW,0.24,WeatherDisplay:10.37,2013-03-13 03:04:00,
2013-03-12 23:09:00,59.5,38.2,29.88,North,0,0.0,0.0,45,0.00,CLR,FEW,0.24,WeatherDisplay:10.37,2013-03-13 03:09:00,
2013-03-12 23:14:00,59.4,38.0,29.88,North,0,0.0,0.0,45,0.00,CLR,FEW,0.24,WeatherDisplay:10.37,2013-03-13 03:14:00,
2013-03-12 23:19:00,59.2,38.4,29.88,North,0,0.0,0.0,46,0.00,CLR,FEW,0.24,WeatherDisplay:10.37,2013-03-13 03:19:00,
2013-03-12 23:24:00,59.0,38.2,29.88,North,0,0.0,0.0,46,0.00,CLR,FEW,0.24,WeatherDisplay:10.37,2013-03-13 03:24:00,
2013-03-12 23:29:00,58.8,38.6,29.88,North,0,0.0,0.0,47,0.00,CLR,FEW,0.24,WeatherDisplay:10.37,2013-03-13 03:29:00,
2013-03-12 23:34:00,58.8,38.6,29.88,North,0,0.0,0.0,47,0.00,CLR,FEW,0.24,WeatherDisplay:10.37,2013-03-13 03:34:00,
2013-03-12 23:39:00,58.8,38.6,29.88,North,0,0.0,0.0,47,0.00,CLR,FEW,0.24,WeatherDisplay:10.37,2013-03-13 03:39:00,
2013-03-12 23:44:00,58.6,38.5,29.88,North,0,0.0,0.0,47,0.00,CLR,FEW,0.24,WeatherDisplay:10.37,2013-03-13 03:44:00,
2013-03-12 23:49:00,58.5,38.3,29.88,North,0,0.0,0.0,47,0.00,CLR,FEW,0.24,WeatherDisplay:10.37,2013-03-13 03:49:00,
2013-03-12 23:54:00,58.5,38.3,29.88,North,0,0.0,0.0,47,0.00,CLR,FEW,0.24,WeatherDisplay:10.37,2013-03-13 03:54:00,
2013-03-12 23:59:00,58.1,38.0,29.88,North,0,0.0,0.0,47,0.00,CLR,FEW,0.24,WeatherDisplay:10.37,2013-03-13 03:59:00,